Year,Month,Day,Hour,Minute,Value (Times are PST for temperature in C)
2015,07,05,00,00,24.10
2015,07,05,00,01,24.00
2015,07,05,00,02,24.00
2015,07,05,00,03,24.00
2015,07,05,00,04,24.00
2015,07,05,00,05,24.00
2015,07,05,00,06,24.00
2015,07,05,00,07,23.90
2015,07,05,00,08,23.90
2015,07,05,00,09,23.90
2015,07,05,00,10,23.80
2015,07,05,00,11,23.80
2015,07,05,00,12,23.80
2015,07,05,00,13,23.80
2015,07,05,00,14,23.70
2015,07,05,00,15,23.70
2015,07,05,00,16,23.60
2015,07,05,00,17,23.60
2015,07,05,00,18,23.50
2015,07,05,00,19,23.40
2015,07,05,00,20,23.40
2015,07,05,00,21,23.30
2015,07,05,00,22,23.30
2015,07,05,00,23,23.20
2015,07,05,00,24,23.20
2015,07,05,00,25,23.10
2015,07,05,00,26,23.10
2015,07,05,00,27,23.00
2015,07,05,00,28,22.90
2015,07,05,00,29,22.90
2015,07,05,00,30,22.80
2015,07,05,00,31,22.80
2015,07,05,00,32,22.70
2015,07,05,00,33,22.70
2015,07,05,00,34,22.60
2015,07,05,00,35,22.60
2015,07,05,00,36,22.50
2015,07,05,00,37,22.50
2015,07,05,00,38,22.50
2015,07,05,00,39,22.40
2015,07,05,00,40,22.40
2015,07,05,00,41,22.40
2015,07,05,00,42,22.40
2015,07,05,00,43,22.40
2015,07,05,00,44,22.40
2015,07,05,00,45,22.30
2015,07,05,00,46,22.30
2015,07,05,00,47,22.30
2015,07,05,00,48,22.30
2015,07,05,00,49,22.30
2015,07,05,00,50,22.30
2015,07,05,00,51,22.20
2015,07,05,00,52,22.20
2015,07,05,00,53,22.20
2015,07,05,00,54,22.20
2015,07,05,00,55,22.20
2015,07,05,00,56,22.20
2015,07,05,00,57,22.20
2015,07,05,00,58,22.20
2015,07,05,00,59,22.20
2015,07,05,01,00,22.20
2015,07,05,01,01,22.10
2015,07,05,01,02,22.10
2015,07,05,01,03,22.10
2015,07,05,01,04,22.10
2015,07,05,01,05,22.10
2015,07,05,01,06,22.10
2015,07,05,01,07,22.10
2015,07,05,01,08,22.00
2015,07,05,01,09,22.00
2015,07,05,01,10,22.00
2015,07,05,01,11,22.00
2015,07,05,01,12,22.00
2015,07,05,01,13,22.00
2015,07,05,01,14,22.00
2015,07,05,01,15,22.00
2015,07,05,01,16,21.90
2015,07,05,01,17,21.90
2015,07,05,01,18,21.90
2015,07,05,01,19,21.80
2015,07,05,01,20,21.80
2015,07,05,01,21,21.80
2015,07,05,01,22,21.70
2015,07,05,01,23,21.70
2015,07,05,01,24,21.60
2015,07,05,01,25,21.60
2015,07,05,01,26,21.50
2015,07,05,01,27,21.40
2015,07,05,01,28,21.40
2015,07,05,01,29,21.30
2015,07,05,01,30,21.30
2015,07,05,01,31,21.20
2015,07,05,01,32,21.20
2015,07,05,01,33,21.10
2015,07,05,01,34,21.10
2015,07,05,01,35,21.00
2015,07,05,01,36,21.00
2015,07,05,01,37,20.90
2015,07,05,01,38,20.90
2015,07,05,01,39,20.90
2015,07,05,01,40,20.90
2015,07,05,01,41,20.80
2015,07,05,01,42,20.80
2015,07,05,01,43,20.80
2015,07,05,01,44,20.90
2015,07,05,01,45,20.90
2015,07,05,01,46,20.90
2015,07,05,01,47,20.90
2015,07,05,01,48,20.90
2015,07,05,01,49,20.90
2015,07,05,01,50,20.90
2015,07,05,01,51,20.90
2015,07,05,01,52,21.00
2015,07,05,01,53,21.00
2015,07,05,01,54,21.00
2015,07,05,01,55,21.00
2015,07,05,01,56,21.00
2015,07,05,01,57,21.00
2015,07,05,01,58,21.00
2015,07,05,01,59,21.10
2015,07,05,02,00,21.10
2015,07,05,02,01,21.10
2015,07,05,02,02,21.10
2015,07,05,02,03,21.10
2015,07,05,02,04,21.10
2015,07,05,02,05,21.20
2015,07,05,02,06,21.20
2015,07,05,02,07,21.20
2015,07,05,02,08,21.20
2015,07,05,02,09,21.20
2015,07,05,02,10,21.20
2015,07,05,02,11,21.20
2015,07,05,02,12,21.20
2015,07,05,02,13,21.20
2015,07,05,02,14,21.30
2015,07,05,02,15,21.30
2015,07,05,02,16,21.30
2015,07,05,02,17,21.30
2015,07,05,02,18,21.40
2015,07,05,02,19,21.40
2015,07,05,02,20,21.50
2015,07,05,02,21,21.50
2015,07,05,02,22,21.60
2015,07,05,02,23,21.60
2015,07,05,02,24,21.70
2015,07,05,02,25,21.70
2015,07,05,02,26,21.70
2015,07,05,02,27,21.70
2015,07,05,02,28,21.80
2015,07,05,02,29,21.80
2015,07,05,02,30,21.80
2015,07,05,02,31,21.80
2015,07,05,02,32,21.80
2015,07,05,02,33,21.80
2015,07,05,02,34,21.80
2015,07,05,02,35,21.80
2015,07,05,02,36,21.80
2015,07,05,02,37,21.90
2015,07,05,02,38,21.90
2015,07,05,02,39,21.90
2015,07,05,02,40,21.90
2015,07,05,02,41,21.90
2015,07,05,02,42,21.90
2015,07,05,02,43,22.00
2015,07,05,02,44,22.00
2015,07,05,02,45,22.00
2015,07,05,02,46,22.00
2015,07,05,02,47,21.90
2015,07,05,02,48,21.90
2015,07,05,02,49,21.90
2015,07,05,02,50,21.90
2015,07,05,02,51,21.90
2015,07,05,02,52,21.80
2015,07,05,02,53,21.80
2015,07,05,02,54,21.80
2015,07,05,02,55,21.80
2015,07,05,02,56,21.70
2015,07,05,02,57,21.70
2015,07,05,02,58,21.70
2015,07,05,02,59,21.60
2015,07,05,03,00,21.60
2015,07,05,03,01,21.50
2015,07,05,03,02,21.50
2015,07,05,03,03,21.40
2015,07,05,03,04,21.40
2015,07,05,03,05,21.30
2015,07,05,03,06,21.30
2015,07,05,03,07,21.20
2015,07,05,03,08,21.20
2015,07,05,03,09,21.20
2015,07,05,03,10,21.10
2015,07,05,03,11,21.10
2015,07,05,03,12,21.10
2015,07,05,03,13,21.00
2015,07,05,03,14,21.00
2015,07,05,03,15,21.10
2015,07,05,03,16,21.10
2015,07,05,03,17,21.10
2015,07,05,03,18,21.20
2015,07,05,03,19,21.20
2015,07,05,03,20,21.20
2015,07,05,03,21,21.30
2015,07,05,03,22,21.30
2015,07,05,03,23,21.30
2015,07,05,03,24,21.40
2015,07,05,03,25,21.40
2015,07,05,03,26,21.40
2015,07,05,03,27,21.40
2015,07,05,03,28,21.40
2015,07,05,03,29,21.40
2015,07,05,03,30,21.40
2015,07,05,03,31,21.40
2015,07,05,03,32,21.30
2015,07,05,03,33,21.30
2015,07,05,03,34,21.30
2015,07,05,03,35,21.30
2015,07,05,03,36,21.30
2015,07,05,03,37,21.30
2015,07,05,03,38,21.30
2015,07,05,03,39,21.30
2015,07,05,03,40,21.30
2015,07,05,03,41,21.30
2015,07,05,03,42,21.30
2015,07,05,03,43,21.30
2015,07,05,03,44,21.30
2015,07,05,03,45,21.30
2015,07,05,03,46,21.30
2015,07,05,03,47,21.30
2015,07,05,03,48,21.30
2015,07,05,03,49,21.30
2015,07,05,03,50,21.30
2015,07,05,03,51,21.30
2015,07,05,03,52,21.30
2015,07,05,03,53,21.30
2015,07,05,03,54,21.30
2015,07,05,03,55,21.30
2015,07,05,03,56,21.30
2015,07,05,03,57,21.30
2015,07,05,03,58,21.30
2015,07,05,03,59,21.20
2015,07,05,04,00,21.20
2015,07,05,04,01,21.20
2015,07,05,04,02,21.20
2015,07,05,04,03,21.20
2015,07,05,04,04,21.20
2015,07,05,04,05,21.20
2015,07,05,04,06,21.20
2015,07,05,04,07,21.20
2015,07,05,04,08,21.20
2015,07,05,04,09,21.20
2015,07,05,04,10,21.20
2015,07,05,04,11,21.20
2015,07,05,04,12,21.20
2015,07,05,04,13,21.20
2015,07,05,04,14,21.20
2015,07,05,04,15,21.20
2015,07,05,04,16,21.20
2015,07,05,04,17,21.20
2015,07,05,04,18,21.20
2015,07,05,04,19,21.20
2015,07,05,04,20,21.20
2015,07,05,04,21,21.10
2015,07,05,04,22,21.10
2015,07,05,04,23,21.10
2015,07,05,04,24,21.10
2015,07,05,04,25,21.10
2015,07,05,04,26,21.10
2015,07,05,04,27,21.10
2015,07,05,04,28,21.10
2015,07,05,04,29,21.10
2015,07,05,04,30,21.10
2015,07,05,04,31,21.10
2015,07,05,04,32,21.10
2015,07,05,04,33,21.10
2015,07,05,04,34,21.10
2015,07,05,04,35,21.00
2015,07,05,04,36,21.00
2015,07,05,04,37,21.00
2015,07,05,04,38,21.00
2015,07,05,04,39,20.90
2015,07,05,04,40,20.90
2015,07,05,04,41,20.90
2015,07,05,04,42,20.90
2015,07,05,04,43,20.90
2015,07,05,04,44,20.90
2015,07,05,04,45,20.90
2015,07,05,04,46,20.90
2015,07,05,04,47,20.90
2015,07,05,04,48,20.90
2015,07,05,04,49,20.90
2015,07,05,04,50,20.90
2015,07,05,04,51,20.90
2015,07,05,04,52,20.90
2015,07,05,04,53,21.00
2015,07,05,04,54,21.00
2015,07,05,04,55,21.00
2015,07,05,04,56,21.00
2015,07,05,04,57,21.00
2015,07,05,04,58,21.00
2015,07,05,04,59,20.90
2015,07,05,05,00,20.90
2015,07,05,05,01,20.90
2015,07,05,05,02,20.90
2015,07,05,05,03,20.90
2015,07,05,05,04,20.90
2015,07,05,05,05,21.00
2015,07,05,05,06,21.00
2015,07,05,05,07,21.00
2015,07,05,05,08,21.00
2015,07,05,05,09,21.10
2015,07,05,05,10,21.10
2015,07,05,05,11,21.10
2015,07,05,05,12,21.10
2015,07,05,05,13,21.10
2015,07,05,05,14,21.10
2015,07,05,05,15,21.10
2015,07,05,05,16,21.00
2015,07,05,05,17,21.00
2015,07,05,05,18,21.10
2015,07,05,05,19,21.00
2015,07,05,05,20,21.10
2015,07,05,05,21,21.10
2015,07,05,05,22,21.10
2015,07,05,05,23,21.10
2015,07,05,05,24,21.10
2015,07,05,05,25,21.20
2015,07,05,05,26,21.20
2015,07,05,05,27,21.20
2015,07,05,05,28,21.20
2015,07,05,05,29,21.30
2015,07,05,05,30,21.30
2015,07,05,05,31,21.30
2015,07,05,05,32,21.30
2015,07,05,05,33,21.30
2015,07,05,05,34,21.30
2015,07,05,05,35,21.30
2015,07,05,05,36,21.30
2015,07,05,05,37,21.30
2015,07,05,05,38,21.30
2015,07,05,05,39,21.30
2015,07,05,05,40,21.30
2015,07,05,05,41,21.30
2015,07,05,05,42,21.40
2015,07,05,05,43,21.40
2015,07,05,05,44,21.40
2015,07,05,05,45,21.40
2015,07,05,05,46,21.40
2015,07,05,05,47,21.50
2015,07,05,05,48,21.50
2015,07,05,05,49,21.50
2015,07,05,05,50,21.50
2015,07,05,05,51,21.60
2015,07,05,05,52,21.60
2015,07,05,05,53,21.60
2015,07,05,05,54,21.60
2015,07,05,05,55,21.60
2015,07,05,05,56,21.70
2015,07,05,05,57,21.70
2015,07,05,05,58,21.70
2015,07,05,05,59,21.70
2015,07,05,06,00,21.70
2015,07,05,06,01,21.70
2015,07,05,06,02,21.60
2015,07,05,06,03,21.60
2015,07,05,06,04,21.60
2015,07,05,06,05,21.60
2015,07,05,06,06,21.60
2015,07,05,06,07,21.60
2015,07,05,06,08,21.60
2015,07,05,06,09,21.60
2015,07,05,06,10,21.60
2015,07,05,06,11,21.60
2015,07,05,06,12,21.60
2015,07,05,06,13,21.60
2015,07,05,06,14,21.60
2015,07,05,06,15,21.60
2015,07,05,06,16,21.50
2015,07,05,06,17,21.50
2015,07,05,06,18,21.50
2015,07,05,06,19,21.50
2015,07,05,06,20,21.50
2015,07,05,06,21,21.50
2015,07,05,06,22,21.50
2015,07,05,06,23,21.50
2015,07,05,06,24,21.50
2015,07,05,06,25,21.50
2015,07,05,06,26,21.50
2015,07,05,06,27,21.50
2015,07,05,06,28,21.40
2015,07,05,06,29,21.50
2015,07,05,06,30,21.50
2015,07,05,06,31,21.40
2015,07,05,06,32,21.40
2015,07,05,06,33,21.40
2015,07,05,06,34,21.40
2015,07,05,06,35,21.40
2015,07,05,06,36,21.40
2015,07,05,06,37,21.40
2015,07,05,06,38,21.40
2015,07,05,06,39,21.40
2015,07,05,06,40,21.40
2015,07,05,06,41,21.40
2015,07,05,06,42,21.40
2015,07,05,06,43,21.40
2015,07,05,06,44,21.40
2015,07,05,06,45,21.50
2015,07,05,06,46,21.50
2015,07,05,06,47,21.60
2015,07,05,06,48,21.60
2015,07,05,06,49,21.60
2015,07,05,06,50,21.60
2015,07,05,06,51,21.60
2015,07,05,06,52,21.60
2015,07,05,06,53,21.60
2015,07,05,06,54,21.60
2015,07,05,06,55,21.60
2015,07,05,06,56,21.60
2015,07,05,06,57,21.60
2015,07,05,06,58,21.70
2015,07,05,06,59,21.70
2015,07,05,07,00,21.70
2015,07,05,07,01,21.70
2015,07,05,07,02,21.70
2015,07,05,07,03,21.70
2015,07,05,07,04,21.80
2015,07,05,07,05,21.80
2015,07,05,07,06,21.80
2015,07,05,07,07,21.80
2015,07,05,07,08,21.80
2015,07,05,07,09,21.90
2015,07,05,07,10,21.90
2015,07,05,07,11,21.90
2015,07,05,07,12,21.90
2015,07,05,07,13,21.90
2015,07,05,07,14,21.90
2015,07,05,07,15,21.90
2015,07,05,07,16,21.90
2015,07,05,07,17,21.90
2015,07,05,07,18,21.90
2015,07,05,07,19,21.90
2015,07,05,07,20,22.00
2015,07,05,07,21,22.00
2015,07,05,07,22,22.10
2015,07,05,07,23,22.10
2015,07,05,07,24,22.20
2015,07,05,07,25,22.20
2015,07,05,07,26,22.30
2015,07,05,07,27,22.30
2015,07,05,07,28,22.30
2015,07,05,07,29,22.30
2015,07,05,07,30,22.40
2015,07,05,07,31,22.40
2015,07,05,07,32,22.40
2015,07,05,07,33,22.50
2015,07,05,07,34,22.50
2015,07,05,07,35,22.60
2015,07,05,07,36,22.60
2015,07,05,07,37,22.60
2015,07,05,07,38,22.60
2015,07,05,07,39,22.60
2015,07,05,07,40,22.70
2015,07,05,07,41,22.70
2015,07,05,07,42,22.70
2015,07,05,07,43,22.70
2015,07,05,07,44,22.70
2015,07,05,07,45,22.80
2015,07,05,07,46,22.80
2015,07,05,07,47,22.80
2015,07,05,07,48,22.80
2015,07,05,07,49,22.80
2015,07,05,07,50,22.80
2015,07,05,07,51,22.80
2015,07,05,07,52,22.80
2015,07,05,07,53,22.90
2015,07,05,07,54,22.90
2015,07,05,07,55,22.90
2015,07,05,07,56,22.90
2015,07,05,07,57,23.00
2015,07,05,07,58,23.00
2015,07,05,07,59,23.00
2015,07,05,08,00,23.00
2015,07,05,08,01,23.00
2015,07,05,08,02,23.10
2015,07,05,08,03,23.10
2015,07,05,08,04,23.10
2015,07,05,08,05,23.10
2015,07,05,08,06,23.10
2015,07,05,08,07,23.10
2015,07,05,08,08,23.20
2015,07,05,08,09,23.20
2015,07,05,08,10,23.20
2015,07,05,08,11,23.20
2015,07,05,08,12,23.20
2015,07,05,08,13,23.20
2015,07,05,08,14,23.20
2015,07,05,08,15,23.30
2015,07,05,08,16,23.30
2015,07,05,08,17,23.30
2015,07,05,08,18,23.30
2015,07,05,08,19,23.30
2015,07,05,08,20,23.30
2015,07,05,08,21,23.30
2015,07,05,08,22,23.30
2015,07,05,08,23,23.30
2015,07,05,08,24,23.40
2015,07,05,08,25,23.40
2015,07,05,08,26,23.40
2015,07,05,08,27,23.40
2015,07,05,08,28,23.40
2015,07,05,08,29,23.50
2015,07,05,08,30,23.50
2015,07,05,08,31,23.50
2015,07,05,08,32,23.60
2015,07,05,08,33,23.60
2015,07,05,08,34,23.60
2015,07,05,08,35,23.60
2015,07,05,08,36,23.70
2015,07,05,08,37,23.70
2015,07,05,08,38,23.70
2015,07,05,08,39,23.70
2015,07,05,08,40,23.80
2015,07,05,08,41,23.80
2015,07,05,08,42,23.80
2015,07,05,08,43,23.80
2015,07,05,08,44,23.80
2015,07,05,08,45,23.80
2015,07,05,08,46,23.80
2015,07,05,08,47,23.90
2015,07,05,08,48,23.90
2015,07,05,08,49,23.90
2015,07,05,08,50,23.90
2015,07,05,08,51,23.90
2015,07,05,08,52,23.90
2015,07,05,08,53,23.90
2015,07,05,08,54,23.90
2015,07,05,08,55,23.90
2015,07,05,08,56,23.90
2015,07,05,08,57,23.90
2015,07,05,08,58,23.90
2015,07,05,08,59,23.90
2015,07,05,09,00,23.90
2015,07,05,09,01,23.90
2015,07,05,09,02,23.90
2015,07,05,09,03,23.90
2015,07,05,09,04,23.90
2015,07,05,09,05,23.90
2015,07,05,09,06,23.90
2015,07,05,09,07,23.90
2015,07,05,09,08,23.90
2015,07,05,09,09,23.90
2015,07,05,09,10,23.90
2015,07,05,09,11,24.00
2015,07,05,09,12,24.00
2015,07,05,09,13,24.00
2015,07,05,09,14,24.00
2015,07,05,09,15,24.00
2015,07,05,09,16,23.90
2015,07,05,09,17,23.90
2015,07,05,09,18,23.90
2015,07,05,09,19,23.90
2015,07,05,09,20,23.90
2015,07,05,09,21,23.90
2015,07,05,09,22,23.90
2015,07,05,09,23,23.90
2015,07,05,09,24,24.00
2015,07,05,09,25,24.00
2015,07,05,09,26,24.00
2015,07,05,09,27,24.00
2015,07,05,09,28,24.00
2015,07,05,09,29,24.00
2015,07,05,09,30,23.90
2015,07,05,09,31,23.90
2015,07,05,09,32,23.90
2015,07,05,09,33,23.90
2015,07,05,09,34,23.90
2015,07,05,09,35,23.90
2015,07,05,09,36,23.80
2015,07,05,09,37,23.80
2015,07,05,09,38,23.80
2015,07,05,09,39,23.80
2015,07,05,09,40,23.80
2015,07,05,09,41,23.80
2015,07,05,09,42,23.80
2015,07,05,09,43,23.70
2015,07,05,09,44,23.70
2015,07,05,09,45,23.70
2015,07,05,09,46,23.70
2015,07,05,09,47,23.70
2015,07,05,09,48,23.70
2015,07,05,09,49,23.60
2015,07,05,09,50,23.60
2015,07,05,09,51,23.60
2015,07,05,09,52,23.60
2015,07,05,09,53,23.60
2015,07,05,09,54,23.60
2015,07,05,09,55,23.60
2015,07,05,09,56,23.60
2015,07,05,09,57,23.60
2015,07,05,09,58,23.60
2015,07,05,09,59,23.60
2015,07,05,10,00,23.60
2015,07,05,10,01,23.60
2015,07,05,10,02,23.60
2015,07,05,10,03,23.60
2015,07,05,10,04,23.60
2015,07,05,10,05,23.60
2015,07,05,10,06,23.60
2015,07,05,10,07,23.60
2015,07,05,10,08,23.50
2015,07,05,10,09,23.50
2015,07,05,10,10,23.50
2015,07,05,10,11,23.40
2015,07,05,10,12,23.40
2015,07,05,10,13,23.40
2015,07,05,10,14,23.40
2015,07,05,10,15,23.40
2015,07,05,10,16,23.30
2015,07,05,10,17,23.30
2015,07,05,10,18,23.30
2015,07,05,10,19,23.30
2015,07,05,10,20,23.30
2015,07,05,10,21,23.30
2015,07,05,10,22,23.30
2015,07,05,10,23,23.30
2015,07,05,10,24,23.20
2015,07,05,10,25,23.20
2015,07,05,10,26,23.20
2015,07,05,10,27,23.20
2015,07,05,10,28,23.20
2015,07,05,10,29,23.20
2015,07,05,10,30,23.20
2015,07,05,10,31,23.20
2015,07,05,10,32,23.20
2015,07,05,10,33,23.20
2015,07,05,10,34,23.20
2015,07,05,10,35,23.20
2015,07,05,10,36,23.20
2015,07,05,10,37,23.20
2015,07,05,10,38,23.20
2015,07,05,10,39,23.20
2015,07,05,10,40,23.20
2015,07,05,10,41,23.20
2015,07,05,10,42,23.20
2015,07,05,10,43,23.20
2015,07,05,10,44,23.20
2015,07,05,10,45,23.20
2015,07,05,10,46,23.20
2015,07,05,10,47,23.20
2015,07,05,10,48,23.20
2015,07,05,10,49,23.20
2015,07,05,10,50,23.20
2015,07,05,10,51,23.20
2015,07,05,10,52,23.20
2015,07,05,10,53,23.20
2015,07,05,10,54,23.20
2015,07,05,10,55,23.20
2015,07,05,10,56,23.20
2015,07,05,10,57,23.20
2015,07,05,10,58,23.30
2015,07,05,10,59,23.30
2015,07,05,11,00,23.30
2015,07,05,11,01,23.30
2015,07,05,11,02,23.30
2015,07,05,11,03,23.30
2015,07,05,11,04,23.30
2015,07,05,11,05,23.30
2015,07,05,11,06,23.30
2015,07,05,11,07,23.30
2015,07,05,11,08,23.40
2015,07,05,11,09,23.40
2015,07,05,11,10,23.40
2015,07,05,11,11,23.40
2015,07,05,11,12,23.40
2015,07,05,11,13,23.40
2015,07,05,11,14,23.40
2015,07,05,11,15,23.40
2015,07,05,11,16,23.40
2015,07,05,11,17,23.50
2015,07,05,11,18,23.50
2015,07,05,11,19,23.50
2015,07,05,11,20,23.50
2015,07,05,11,21,23.60
2015,07,05,11,22,23.60
2015,07,05,11,23,23.60
2015,07,05,11,24,23.60
2015,07,05,11,25,23.60
2015,07,05,11,26,23.60
2015,07,05,11,27,23.70
2015,07,05,11,28,23.70
2015,07,05,11,29,23.70
2015,07,05,11,30,23.70
2015,07,05,11,31,23.70
2015,07,05,11,32,23.70
2015,07,05,11,33,23.80
2015,07,05,11,34,23.80
2015,07,05,11,35,23.80
2015,07,05,11,36,23.80
2015,07,05,11,37,23.80
2015,07,05,11,38,23.80
2015,07,05,11,39,23.80
2015,07,05,11,40,23.80
2015,07,05,11,41,23.80
2015,07,05,11,42,23.80
2015,07,05,11,43,23.90
2015,07,05,11,44,23.90
2015,07,05,11,45,23.90
2015,07,05,11,46,23.90
2015,07,05,11,47,23.90
2015,07,05,11,48,23.90
2015,07,05,11,49,23.90
2015,07,05,11,50,24.00
2015,07,05,11,51,24.00
2015,07,05,11,52,24.00
2015,07,05,11,53,24.00
2015,07,05,11,54,24.00
2015,07,05,11,55,24.10
2015,07,05,11,56,24.10
2015,07,05,11,57,24.10
2015,07,05,11,58,24.10
2015,07,05,11,59,24.10
2015,07,05,12,00,24.20
2015,07,05,12,01,24.20
2015,07,05,12,02,24.20
2015,07,05,12,03,24.20
2015,07,05,12,04,24.30
2015,07,05,12,05,24.30
2015,07,05,12,06,24.30
2015,07,05,12,07,24.30
2015,07,05,12,08,24.40
2015,07,05,12,09,24.40
2015,07,05,12,10,24.40
2015,07,05,12,11,24.40
2015,07,05,12,12,24.40
2015,07,05,12,13,24.50
2015,07,05,12,14,24.50
2015,07,05,12,15,24.50
2015,07,05,12,16,24.50
2015,07,05,12,17,24.60
2015,07,05,12,18,24.60
2015,07,05,12,19,24.60
2015,07,05,12,20,24.60
2015,07,05,12,21,24.70
2015,07,05,12,22,24.70
2015,07,05,12,23,24.70
2015,07,05,12,24,24.70
2015,07,05,12,25,24.70
2015,07,05,12,26,24.80
2015,07,05,12,27,24.80
2015,07,05,12,28,24.80
2015,07,05,12,29,24.80
2015,07,05,12,30,24.90
2015,07,05,12,31,24.90
2015,07,05,12,32,24.90
2015,07,05,12,33,24.90
2015,07,05,12,34,25.00
2015,07,05,12,35,25.00
2015,07,05,12,36,25.00
2015,07,05,12,37,25.10
2015,07,05,12,38,25.10
2015,07,05,12,39,25.10
2015,07,05,12,40,25.10
2015,07,05,12,41,25.20
2015,07,05,12,42,25.20
2015,07,05,12,43,25.20
2015,07,05,12,44,25.20
2015,07,05,12,45,25.30
2015,07,05,12,46,25.30
2015,07,05,12,47,25.30
2015,07,05,12,48,25.40
2015,07,05,12,49,25.40
2015,07,05,12,50,25.50
2015,07,05,12,51,25.60
2015,07,05,12,52,25.60
2015,07,05,12,53,25.60
2015,07,05,12,54,25.70
2015,07,05,12,55,25.70
2015,07,05,12,56,25.70
2015,07,05,12,57,25.70
2015,07,05,12,58,25.80
2015,07,05,12,59,25.80
2015,07,05,13,00,25.80
2015,07,05,13,01,25.90
2015,07,05,13,02,25.90
2015,07,05,13,03,26.00
2015,07,05,13,04,26.00
2015,07,05,13,05,26.10
2015,07,05,13,06,26.10
2015,07,05,13,07,26.20
2015,07,05,13,08,26.20
2015,07,05,13,09,26.20
2015,07,05,13,10,26.20
2015,07,05,13,11,26.30
2015,07,05,13,12,26.30
2015,07,05,13,13,26.40
2015,07,05,13,14,26.40
2015,07,05,13,15,26.50
2015,07,05,13,16,26.60
2015,07,05,13,17,26.60
2015,07,05,13,18,26.60
2015,07,05,13,19,26.70
2015,07,05,13,20,26.70
2015,07,05,13,21,26.80
2015,07,05,13,22,26.80
2015,07,05,13,23,26.90
2015,07,05,13,24,27.00
2015,07,05,13,25,27.00
2015,07,05,13,26,27.10
2015,07,05,13,27,27.10
2015,07,05,13,28,27.20
2015,07,05,13,29,27.30
2015,07,05,13,30,27.30
2015,07,05,13,31,27.30
2015,07,05,13,32,27.40
2015,07,05,13,33,27.40
2015,07,05,13,34,27.40
2015,07,05,13,35,27.50
2015,07,05,13,36,27.50
2015,07,05,13,37,27.50
2015,07,05,13,38,27.60
2015,07,05,13,39,27.60
2015,07,05,13,40,27.60
2015,07,05,13,41,27.70
2015,07,05,13,42,27.70
2015,07,05,13,43,27.70
2015,07,05,13,44,27.70
2015,07,05,13,45,27.80
2015,07,05,13,46,27.80
2015,07,05,13,47,27.80
2015,07,05,13,48,27.90
2015,07,05,13,49,27.90
2015,07,05,13,50,27.90
2015,07,05,13,51,28.00
2015,07,05,13,52,28.00
2015,07,05,13,53,28.00
2015,07,05,13,54,28.10
2015,07,05,13,55,28.10
2015,07,05,13,56,28.20
2015,07,05,13,57,28.20
2015,07,05,13,58,28.30
2015,07,05,13,59,28.40
2015,07,05,14,00,28.40
2015,07,05,14,01,28.50
2015,07,05,14,02,28.60
2015,07,05,14,03,28.60
2015,07,05,14,04,28.70
2015,07,05,14,05,28.70
2015,07,05,14,06,28.70
2015,07,05,14,07,28.70
2015,07,05,14,08,28.70
2015,07,05,14,09,28.70
2015,07,05,14,10,28.70
2015,07,05,14,11,28.70
2015,07,05,14,12,28.60
2015,07,05,14,13,28.60
2015,07,05,14,14,28.60
2015,07,05,14,15,28.60
2015,07,05,14,16,28.60
2015,07,05,14,17,28.50
2015,07,05,14,18,28.50
2015,07,05,14,19,28.50
2015,07,05,14,20,28.40
2015,07,05,14,21,28.40
2015,07,05,14,22,28.40
2015,07,05,14,23,28.50
2015,07,05,14,24,28.50
2015,07,05,14,25,28.60
2015,07,05,14,26,28.60
2015,07,05,14,27,28.60
2015,07,05,14,28,28.60
2015,07,05,14,29,28.50
2015,07,05,14,30,28.50
2015,07,05,14,31,28.50
2015,07,05,14,32,28.50
2015,07,05,14,33,28.60
2015,07,05,14,34,28.60
2015,07,05,14,35,28.70
2015,07,05,14,36,28.70
2015,07,05,14,37,28.80
2015,07,05,14,38,28.90
2015,07,05,14,39,28.90
2015,07,05,14,40,28.90
2015,07,05,14,41,29.00
2015,07,05,14,42,29.00
2015,07,05,14,43,29.10
2015,07,05,14,44,29.10
2015,07,05,14,45,29.00
2015,07,05,14,46,29.00
2015,07,05,14,47,28.90
2015,07,05,14,48,28.90
2015,07,05,14,49,28.90
2015,07,05,14,50,29.00
2015,07,05,14,51,29.00
2015,07,05,14,52,29.10
2015,07,05,14,53,29.10
2015,07,05,14,54,29.20
2015,07,05,14,55,29.20
2015,07,05,14,56,29.20
2015,07,05,14,57,29.20
2015,07,05,14,58,29.30
2015,07,05,14,59,29.30
2015,07,05,15,00,29.40
2015,07,05,15,01,29.40
2015,07,05,15,02,29.50
2015,07,05,15,03,29.60
2015,07,05,15,04,29.60
2015,07,05,15,05,29.70
2015,07,05,15,06,29.80
2015,07,05,15,07,29.80
2015,07,05,15,08,29.90
2015,07,05,15,09,29.90
2015,07,05,15,10,29.90
2015,07,05,15,11,30.00
2015,07,05,15,12,30.00
2015,07,05,15,13,29.90
2015,07,05,15,14,29.90
2015,07,05,15,15,29.90
2015,07,05,15,16,29.80
2015,07,05,15,17,29.80
2015,07,05,15,18,29.70
2015,07,05,15,19,29.60
2015,07,05,15,20,29.60
2015,07,05,15,21,29.50
2015,07,05,15,22,29.50
2015,07,05,15,23,29.50
2015,07,05,15,24,29.50
2015,07,05,15,25,29.50
2015,07,05,15,26,29.60
2015,07,05,15,27,29.60
2015,07,05,15,28,29.70
2015,07,05,15,29,29.70
2015,07,05,15,30,29.70
2015,07,05,15,31,29.60
2015,07,05,15,32,29.60
2015,07,05,15,33,29.60
2015,07,05,15,34,29.60
2015,07,05,15,35,29.70
2015,07,05,15,36,29.70
2015,07,05,15,37,29.70
2015,07,05,15,38,29.70
2015,07,05,15,39,29.80
2015,07,05,15,40,29.80
2015,07,05,15,41,29.90
2015,07,05,15,42,29.90
2015,07,05,15,43,29.90
2015,07,05,15,44,30.00
2015,07,05,15,45,30.00
2015,07,05,15,46,30.10
2015,07,05,15,47,30.10
2015,07,05,15,48,30.10
2015,07,05,15,49,30.10
2015,07,05,15,50,30.20
2015,07,05,15,51,30.20
2015,07,05,15,52,30.20
2015,07,05,15,53,30.20
2015,07,05,15,54,30.20
2015,07,05,15,55,30.20
2015,07,05,15,56,30.20
2015,07,05,15,57,30.10
2015,07,05,15,58,30.10
2015,07,05,15,59,30.10
2015,07,05,16,00,30.10
2015,07,05,16,01,30.10
2015,07,05,16,02,30.10
2015,07,05,16,03,30.10
2015,07,05,16,04,30.10
2015,07,05,16,05,30.10
2015,07,05,16,06,30.10
2015,07,05,16,07,30.10
2015,07,05,16,08,30.20
2015,07,05,16,09,30.20
2015,07,05,16,10,30.20
2015,07,05,16,11,30.20
2015,07,05,16,12,30.20
2015,07,05,16,13,30.20
2015,07,05,16,14,30.10
2015,07,05,16,15,30.10
2015,07,05,16,16,30.10
2015,07,05,16,17,30.10
2015,07,05,16,18,30.10
2015,07,05,16,19,30.10
2015,07,05,16,20,30.10
2015,07,05,16,21,30.10
2015,07,05,16,22,30.00
2015,07,05,16,23,30.00
2015,07,05,16,24,29.90
2015,07,05,16,25,29.90
2015,07,05,16,26,29.90
2015,07,05,16,27,29.90
2015,07,05,16,28,29.80
2015,07,05,16,29,29.80
2015,07,05,16,30,29.70
2015,07,05,16,31,29.70
2015,07,05,16,32,29.70
2015,07,05,16,33,29.70
2015,07,05,16,34,29.70
2015,07,05,16,35,29.70
2015,07,05,16,36,29.60
2015,07,05,16,37,29.60
2015,07,05,16,38,29.60
2015,07,05,16,39,29.60
2015,07,05,16,40,29.60
2015,07,05,16,41,29.50
2015,07,05,16,42,29.50
2015,07,05,16,43,29.40
2015,07,05,16,44,29.40
2015,07,05,16,45,29.40
2015,07,05,16,46,29.40
2015,07,05,16,47,29.40
2015,07,05,16,48,29.30
2015,07,05,16,49,29.30
2015,07,05,16,50,29.30
2015,07,05,16,51,29.30
2015,07,05,16,52,29.30
2015,07,05,16,53,29.30
2015,07,05,16,54,29.30
2015,07,05,16,55,29.30
2015,07,05,16,56,29.30
2015,07,05,16,57,29.30
2015,07,05,16,58,29.30
2015,07,05,16,59,29.30
2015,07,05,17,00,29.30
2015,07,05,17,01,29.30
2015,07,05,17,02,29.30
2015,07,05,17,03,29.40
2015,07,05,17,04,29.40
2015,07,05,17,05,29.40
2015,07,05,17,06,29.40
2015,07,05,17,07,29.40
2015,07,05,17,08,29.40
2015,07,05,17,09,29.40
2015,07,05,17,10,29.30
2015,07,05,17,11,29.30
2015,07,05,17,12,29.30
2015,07,05,17,13,29.30
2015,07,05,17,14,29.30
2015,07,05,17,15,29.30
2015,07,05,17,16,29.30
2015,07,05,17,17,29.20
2015,07,05,17,18,29.20
2015,07,05,17,19,29.20